Showing default

YUNHAI 2-1C, 43911

Orbit data source: Space-Track

YUNHAI 2-1C, 43911 is a payload satellite owned by CASC (CN) in LEO that was launched on Sat, 29 Dec 2018 UTC via a CHANG ZHENG 2D/YZ-3 launch vehicle from the Jiuquan Satellite Launch Center, China (JSC). Payload-class satellites include a variety of spacecraft equipped with specific instruments for various scientific and technological missions. These include communications satellites like Starlink; space stations such as the ISS; scientific satellites like the Hubble; Earth observation satellites from companies like Planet Labs, Umbra, and HawkEye 360; GPS; miniature CubeSats for education and research; and military/defense satellites.

Loading next visibility...
Identifier
43911, 2018-112C
Orbit
LEO
Country
Flag of CNCN / PRC
Related business
Manufacturer
DFH Shenzhen
Mission
Operational Defense Meteo Radio Occ.
Bus & Motor
YH-2, Unknown motor
Mass
~100 kg wet, ~100 kg dry
Launch date (UTC)
2018-12-29 (7 years ago)
Launch vehicle
CHANG ZHENG 2D/YZ-3
Launch site
Jiuquan Satellite Launch Center, China (JSC)
Object type
Payload
Rocket body
Debris
Shape & HBR
Box + 2 Pan, 0.5 m
Radar Cross Section
0.166 m², Large (>1 m²)

Expand to show TLE details & history
Last TLE update: 8 hours ago

TLE from 8 hours ago
0 YUNHAI 2-1C
1 43911U 18112C   25258.30560625  .00000197  00000-0  14129-3 0  9997
2 43911  50.0113  74.0544 0000451 241.8698 118.2172 14.28817092352488
Epoch: 2025-09-15T07:20Z
TLE epoch observation values (Epoch: 2025-09-15T07:20:04.38Z)
Latitude
0.00003°
Longitude
-30.47599°
Altitude
796.372 km
Speed
7.457 km/s
True Right ascension
04h 56m 13s
True Declination
0° 00' 00"
Sunlit
Object was in daylight at epoch
Visualization orbit readout
Latitude
Unknown
Longitude
Unknown
Altitude
Unknown
Speed
Unknown
Apparent Right ascension
Unknown
Apparent Declination
Unknown
Sunlit
N/A
Visualization observer readout
Local Sidereal Time
07:37:22
Azimuth
Unknown
Elevation
Unknown
Doppler factor
Unknown
Orbital elements
Apogee altitude
796.749 km
Perigee altitude
796.102 km
Semi-major axis
7,174.562 km
Eccentricity
0.00005
Inclination
50.0113°
RAAN
74.0544°
Arg. of periapsis
241.8698°
True anomaly
118.22175°
Mean anomaly
118.2172°
Eccentric anomaly
118.21948°
Mean motion
3.57149 °/min
Orbital period
100.8 mins
BSTAR
0.00014129
Loading maneuver chart data...
Computing Atmospheric mass density...
Loading historical data...
Loading historical data...
Loading historical data...
Loading historical data...
Loading historical data...
Loading historical data...
Loading historical data...

Documentation

Showing up to 5 results
|